Location: Unspecified
(0.0000°N, 0.0000°E)
Time: 01:27:24
(UTC+00:00)

KAITUO 1B - Pass Details

Date: 01 April 2019
Orbit: 495 x 518 km, 97.4° (Epoch: 19 July)

Event Time Altitude Azimuth Distance (km) Brightness Sun altitude
Rises 18:46:07 0° 201° (SSW) 2,617 ? -10.5°
Reaches altitude 10° 18:49:07 10° 228° (SW) 1,723 ? -11.3°
Maximum altitude 18:50:58 13° 258° (WSW) 1,511 ? -11.7°
Drops below altitude 10° 18:52:50 10° 289° (WNW) 1,711 ? -12.2°
Sets 18:55:48 0° 316° (NW) 2,586 ? -12.9°
